Lapse_Rate
6.2 6.2 6.2 5.7 5.8 5.8 5.1 4.8 5.1 5.1 5.4 5.6 6.0 6.2 6.3 6.1 6.0 6.0 5.9 5.9 5.8 6.1 5.8 5.8 5.9 5.8 5.6 5.4 5.6 5.6 5.7 5.8 5.7 5.7 5.7 5.7 5.6 5.8 5.6 5.5 5.7 5.6 5.6
6.5 6.2 5.9 5.9 5.7 5.5 5.2 4.4 5.2 5.0 5.3 5.9 6.4 6.5 6.5 6.2 6.2 6.1 6.1 6.2 6.2 6.0 6.0 6.1 6.2 5.9 5.5 5.7 5.8 5.8 5.8 5.8 5.8 5.8 5.7 5.6 5.7 6.1 6.2 5.9 6.1 6.1 5.7
6.3 5.9 5.5 5.2 5.3 4.9 4.8 4.7 5.1 5.5 5.0 5.2 5.7 6.3 6.3 6.7 6.7 6.1 6.6 6.4 6.2 6.1 6.1 6.1 5.9 5.8 5.6 5.8 6.0 5.9 5.7 5.9 5.9 5.8 5.4 5.3 5.8 6.1 6.2 6.6 6.3 6.1 6.0
6.2 5.7 4.9 5.2 5.0 5.0 4.8 5.1 4.8 5.0 5.0 5.1 5.2 6.0 6.3 7.1 6.7 6.5 6.2 5.8 5.6 6.0 5.8 5.8 6.1 5.8 5.9 6.1 5.6 5.5 5.7 5.7 5.5 5.5 5.7 5.9 6.2 6.1 6.1 7.0 7.2 6.4 6.2
6.2 6.2 6.0 5.9 5.8 5.4 5.0 5.4 4.9 4.5 4.5 5.0 5.4 5.1 5.5 6.7 7.2 6.9 6.2 5.9 5.7 5.5 5.4 5.6 5.8 6.0 5.8 5.8 5.5 5.7 5.6 5.5 6.0 5.9 5.8 6.2 6.1 6.4 6.3 6.6 6.7 6.7 6.3
6.8 6.3 6.0 6.1 6.0 5.9 5.5 5.8 5.2 4.9 4.7 5.1 5.1 5.4 6.0 5.7 5.6 6.5 6.5 5.9 5.1 5.0 5.1 5.3 5.9 5.9 5.4 5.4 5.4 5.0 5.4 5.7 5.8 6.3 6.7 6.4 6.1 6.1 6.1 5.9 6.0 6.0 6.0
7.2 6.9 6.5 6.5 6.3 6.2 6.2 5.5 5.7 5.4 5.7 5.6 6.2 6.2 5.9 5.9 5.9 6.3 6.2 5.3 5.1 5.1 4.9 5.3 5.8 5.3 5.4 5.2 5.4 5.6 6.0 6.2 6.2 6.6 6.3 6.2 5.9 6.0 5.9 5.9 5.8 5.8 5.7
6.8 7.1 7.0 7.1 7.0 6.6 6.8 6.7 6.6 6.1 6.2 5.8 5.6 5.9 6.0 6.4 6.2 5.7 5.9 5.2 5.3 4.9 5.1 5.5 5.6 5.7 5.7 5.8 6.1 6.2 6.4 6.2 6.2 6.3 6.2 6.0 5.8 5.8 5.7 5.7 5.6 5.4 5.4
6.6 6.9 7.0 6.9 7.1 7.1 6.6 6.8 6.8 6.6 6.4 6.3 6.4 6.3 6.4 5.8 5.7 5.3 5.8 6.0 6.0 5.8 5.8 5.8 5.9 6.1 6.0 6.2 6.3 6.0 6.2 6.2 6.2 6.0 5.8 5.7 5.6 5.2 5.2 5.3 5.3 5.2 5.1
6.7 6.6 6.7 6.5 6.6 6.7 6.6 6.5 6.6 6.5 6.6 6.7 6.8 6.7 6.9 6.9 6.9 6.8 7.0 6.8 6.5 6.5 6.4 6.6 6.7 6.5 6.3 6.3 6.1 6.0 5.9 5.9 5.8 5.6 5.2 5.3 5.1 5.2 5.3 5.3 5.1 4.9 4.8
7.3 6.8 6.5 6.4 6.5 6.4 6.5 6.3 6.6 6.5 6.5 6.6 6.8 6.8 6.8 6.8 6.6 6.6 6.7 6.7 6.6 6.5 6.6 6.5 6.4 6.2 6.1 5.9 6.0 6.1 6.0 5.8 5.5 5.3 5.2 5.2 5.2 5.1 4.9 4.8 4.7 4.6 4.8
7.4 7.2 6.9 6.7 6.5 6.2 5.9 6.0 6.4 6.5 6.6 6.6 6.5 6.5 6.6 6.7 6.6 6.7 6.7 6.8 6.6 6.3 6.2 6.1 6.1 6.0 6.0 6.1 5.9 5.7 5.7 5.7 5.2 5.1 5.2 5.2 5.2 4.8 4.7 4.7 4.6 4.8 5.2
7.5 7.5 7.4 7.4 7.2 6.9 6.7 6.3 5.8 6.0 6.3 6.7 6.7 6.7 6.7 6.6 6.5 6.3 6.0 6.2 6.4 6.4 6.3 6.3 6.2 6.1 6.1 6.0 6.1 6.0 5.6 5.4 5.4 5.4 5.3 5.2 5.2 5.1 5.0 5.2 5.2 5.2 5.5
7.4 7.5 7.4 7.2 7.2 7.2 7.0 7.1 6.6 6.0 5.9 6.5 6.6 6.7 6.8 6.7 6.6 6.6 6.5 6.6 6.6 6.4 6.4 6.2 6.2 6.1 6.1 6.1 6.0 5.7 5.5 5.4 5.4 5.4 5.2 5.2 5.4 5.4 5.4 5.6 5.9 6.1 6.0
7.4 7.5 7.4 7.4 7.4 7.3 7.4 7.3 6.8 6.6 6.7 6.4 6.4 6.6 6.7 6.7 6.7 6.8 6.7 6.7 6.6 6.5 6.4 6.3 6.2 6.0 6.0 6.2 5.9 5.7 5.6 5.4 5.3 5.3 5.4 5.5 5.6 5.6 5.8 6.1 6.2 6.2 6.3
7.5 7.4 7.4 7.3 7.3 7.3 7.4 7.4 7.4 7.1 7.0 6.9 6.7 6.6 6.6 6.5 6.5 6.5 6.5 6.6 6.5 6.4 6.4 6.3 6.1 6.0 6.0 5.9 5.8 5.7 5.6 5.4 5.5 5.6 5.7 5.6 5.7 6.1 6.3 6.4 6.4 6.4 6.3
7.2 7.3 7.3 7.3 7.2 7.2 7.2 7.1 7.1 7.3 7.3 7.1 6.9 6.8 6.8 6.7 6.6 6.6 6.8 6.7 6.6 6.5 6.4 6.1 5.9 5.9 5.9 5.9 5.8 5.7 5.6 5.7 5.7 5.8 5.7 6.0 6.4 6.6 6.6 6.5 6.5 6.5 6.4
7.2 7.2 7.2 7.4 7.4 7.2 7.1 7.1 7.1 7.0 7.0 7.0 6.9 6.9 7.0 6.9 6.8 6.8 6.7 6.6 6.6 6.4 6.3 6.2 6.1 6.0 6.0 5.8 6.0 5.8 5.9 6.0 6.0 6.1 6.4 6.6 6.7 6.6 6.6 6.5 6.5 6.4 6.4
7.2 7.3 7.1 7.0 6.9 7.3 7.5 7.5 7.5 7.3 7.2 7.1 7.1 7.1 7.1 7.1 7.1 7.1 7.1 7.0 6.9 6.8 6.6 6.3 6.1 6.1 6.2 6.0 6.0 5.9 6.0 6.1 6.2 6.3 6.5 6.4 6.5 6.6 6.6 6.5 6.3 6.5 6.5
6.9 7.0 7.1 7.3 7.3 7.4 7.4 7.6 7.7 7.7 7.6 7.4 7.2 7.2 7.3 7.2 7.2 7.2 7.3 7.2 7.2 7.1 7.1 6.9 6.8 6.7 6.6 6.1 6.0 6.0 6.1 6.2 6.4 6.5 6.4 6.5 6.6 6.7 6.6 6.6 6.5 6.4 6.3
6.7 6.6 6.7 6.7 6.8 6.9 7.1 7.2 7.2 7.4 7.5 7.5 7.5 7.5 7.5 7.3 7.2 7.2 7.3 7.4 7.4 7.3 7.2 7.0 6.8 6.6 6.6 6.0 6.3 6.1 6.3 6.4 6.4 6.4 6.6 6.6 6.6 6.6 6.5 6.5 6.5 6.5 6.5
6.9 6.6 6.5 6.4 6.3 6.3 6.5 6.7 6.9 7.0 7.1 7.2 7.3 7.3 7.3 7.3 7.3 7.3 7.4 7.3 7.2 7.2 7.2 7.1 6.8 6.4 6.0 6.2 6.2 6.3 6.4 6.5 6.6 6.5 6.5 6.7 6.6 6.4 6.5 6.6 6.5 6.5 6.5
6.6 6.4 6.5 6.3 6.3 6.4 6.6 6.7 6.8 6.9 7.0 7.1 7.3 7.2 7.1 7.2 7.1 7.2 7.1 7.0 7.0 7.0 7.0 6.9 6.8 6.8 6.4 6.3 6.4 6.4 6.4 6.4 6.2 6.3 6.6 6.6 6.5 6.5 6.7 6.7 6.6 6.6 6.4
6.6 6.6 6.4 6.4 6.5 6.6 6.7 6.6 6.8 7.0 7.1 7.0 7.2 7.2 7.1 7.0 7.0 6.8 6.7 6.6 6.8 6.9 6.9 6.8 6.7 6.6 6.5 6.5 6.6 6.5 6.4 6.2 6.4 6.4 6.6 6.7 6.5 6.6 6.7 6.7 6.7 6.6 6.3
6.8 6.7 6.7 6.7 6.7 6.7 6.8 6.8 6.9 7.0 7.0 7.0 6.9 6.8 6.9 6.8 6.6 6.5 6.4 6.4 6.5 6.5 6.6 6.6 6.7 6.8 6.6 6.5 6.5 6.5 6.5 6.5 6.5 6.6 6.5 6.6 6.6 6.7 6.7 6.7 6.7 6.5 6.3
6.7 6.8 6.9 6.9 6.9 6.6 6.6 6.7 6.7 6.8 6.7 6.6 6.7 6.6 6.4 6.2 6.1 6.3 6.3 6.3 6.4 6.4 6.4 6.6 6.7 6.7 6.7 6.7 6.7 6.6 6.5 6.6 6.5 6.6 6.3 6.2 6.4 6.6 6.6 6.6 6.6 6.4 6.2
Wind_Speed
15 14 13 12 11 6 5 14 16 15 9 9 8 8 8 6 6 6 14 13 12 14 11 5 7 7 6 7 7 6 5 4 3 1 3 4 6 4 5 3 4 2 2
15 14 11 7 8 7 3 4 8 17 12 8 8 6 5 5 6 4 7 7 8 8 10 7 5 5 5 6 7 6 4 4 3 2 1 1 3 2 3 2 2 2 1
16 9 10 9 6 6 5 4 1 9 9 11 7 7 6 5 3 5 4 5 8 7 5 6 4 4 4 4 2 2 3 4 1 3 2 2 4 2 4 4 4 4 3
14 15 12 16 18 13 8 7 8 9 9 12 7 12 6 7 4 4 3 4 9 10 11 10 8 5 2 4 4 4 5 3 3 0 3 5 3 1 2 2 3 3 4
8 17 19 16 15 14 15 13 11 10 11 13 8 5 5 5 6 5 3 3 2 3 7 9 7 6 4 4 5 3 4 3 5 3 2 3 3 4 4 4 1 2 4
12 10 11 12 15 12 12 13 13 11 9 8 9 10 8 9 7 6 5 2 2 2 7 9 8 7 5 4 6 9 11 8 6 5 3 3 2 4 3 4 5 4 3
14 13 11 9 9 10 15 15 18 19 17 15 15 11 11 12 12 6 3 2 5 7 10 7 7 6 7 9 9 10 9 8 7 6 4 3 3 3 2 2 2 2 1
11 12 12 11 11 11 10 14 16 16 15 14 14 11 10 3 3 4 4 9 12 9 8 7 7 7 8 7 7 5 6 6 5 6 4 2 2 1 1 1 2 3 5
6 8 11 12 12 13 13 13 13 19 20 21 18 19 13 11 11 16 14 12 12 8 6 7 5 5 4 6 6 5 4 4 4 4 4 3 3 3 2 2 2 3 2
2 6 5 4 4 7 10 12 14 13 12 12 9 9 12 13 16 13 15 14 7 5 7 6 6 6 6 7 6 5 5 5 4 4 5 4 2 2 2 2 3 4 4
5 4 4 5 4 2 3 6 8 10 10 10 11 10 8 7 7 8 7 7 5 6 7 8 8 8 7 7 6 6 7 6 5 4 4 4 3 1 3 2 2 3 2
7 7 7 5 4 6 6 6 8 8 8 10 10 10 9 8 7 6 6 7 6 6 8 8 9 8 7 7 8 7 6 6 6 5 3 3 3 3 2 1 4 4 4
10 10 9 7 4 4 6 8 5 4 5 8 10 10 9 10 10 9 9 8 8 8 7 7 8 7 6 8 7 7 6 5 4 4 2 2 3 3 3 3 2 1 4
11 10 9 8 6 6 7 6 7 7 6 6 8 9 9 8 8 9 9 9 9 9 7 7 8 7 6 5 5 6 6 5 4 3 1 2 3 2 2 2 3 3 4
12 11 9 8 9 8 7 7 7 7 7 7 7 6 6 6 7 8 9 8 9 9 9 9 8 7 6 5 6 6 6 6 5 3 3 2 5 5 5 2 2 3 3
12 10 9 9 8 8 7 5 6 6 6 7 7 6 6 5 6 7 8 9 8 8 8 8 7 7 4 8 8 7 5 5 4 4 4 4 3 2 1 2 3 3 3
10 9 9 8 8 8 6 6 5 5 5 5 7 7 8 7 6 7 7 7 8 8 8 8 8 7 7 11 10 7 5 4 4 3 3 3 3 2 4 3 1 2 1
9 10 9 8 8 8 7 5 3 2 2 3 5 6 8 9 9 9 8 8 7 7 6 6 6 7 6 11 11 9 4 3 4 4 5 4 5 4 3 3 2 2 1
8 7 7 7 8 8 9 7 4 1 3 4 5 7 7 8 8 8 8 7 5 4 6 6 7 6 7 9 11 9 5 4 3 3 2 2 3 6 5 2 3 3 1
8 8 7 6 4 5 7 8 8 7 6 5 4 5 6 7 8 8 8 5 5 5 4 5 5 7 9 11 13 7 3 4 3 2 2 2 4 7 6 4 4 4 3
9 8 9 7 6 6 6 6 6 7 8 6 4 4 6 6 7 8 7 7 8 7 6 7 6 6 6 9 14 12 3 2 2 2 2 3 7 7 7 8 4 2 1
7 7 7 6 7 8 7 7 6 5 6 6 7 6 5 4 6 9 8 8 8 8 7 6 6 5 6 6 12 12 8 3 2 2 4 3 9 10 7 6 6 4 3
6 6 6 5 5 7 8 8 7 7 5 5 7 8 7 7 7 7 8 7 8 6 7 6 6 6 5 5 7 10 10 9 4 1 3 5 10 9 7 8 8 7 4
4 4 5 5 5 6 6 7 8 6 4 5 5 6 8 7 7 5 5 5 6 6 7 7 6 5 4 3 4 5 6 12 10 8 5 7 8 7 4 3 5 4 3
4 4 4 3 4 5 6 7 8 7 3 1 3 5 6 7 7 6 6 6 6 5 6 5 4 5 5 7 10 9 7 7 8 7 3 3 3 3 3 3 4 3 3
4 3 3 4 5 6 7 8 9 8 5 2 2 3 3 3 3 4 3 1 3 3 5 6 4 2 4 10 13 11 9 8 12 4 3 4 4 4 3 4 4 4 4
Wind_Direction
163 166 182 188 191 187 231 162 172 177 155 152 154 162 165 160 169 174 183 186 190 191 193 206 212 193 209 209 212 212 199 203 221 135 250 269 256 255 252 253 266 138 323
156 166 169 181 160 190 228 131 189 168 164 155 152 154 146 151 160 159 178 190 196 207 198 202 230 220 216 226 222 206 201 204 141 161 82 297 318 230 244 236 260 304 285
144 155 149 169 114 126 249 229 317 164 153 159 150 137 123 116 142 162 168 177 192 191 205 224 199 243 261 274 307 213 227 186 158 168 138 169 227 60 153 204 229 228 213
172 153 196 183 155 150 249 179 217 232 165 154 165 152 157 142 149 166 181 181 200 203 199 214 210 218 212 186 222 249 232 165 165 130 249 289 20 324 309 160 221 246 260
187 174 191 181 169 173 199 183 191 209 209 185 151 166 158 149 143 129 108 99 251 261 206 211 211 206 192 195 207 193 202 196 171 194 150 220 246 241 243 284 203 235 233
177 199 196 181 182 174 174 173 184 199 192 192 183 187 186 168 159 160 155 205 197 232 226 210 209 191 166 178 204 200 219 207 199 183 191 218 239 216 227 253 261 270 148
177 174 180 181 188 189 181 187 189 196 197 212 226 212 199 183 169 158 159 3 269 234 232 215 209 197 193 209 216 211 212 204 196 174 163 208 242 273 291 309 303 290 1
179 171 179 181 190 200 212 191 198 206 201 202 222 232 222 212 90 215 215 213 241 238 222 220 220 201 191 192 192 195 197 163 148 149 172 199 210 216 275 195 234 271 244
220 192 173 183 184 187 196 190 209 216 208 203 208 217 219 198 202 209 224 218 222 220 197 203 191 171 164 151 167 156 149 146 152 157 162 186 191 197 207 237 234 260 280
168 176 181 182 180 177 187 189 188 208 184 182 198 196 213 199 199 198 208 214 216 175 179 154 141 154 140 143 136 126 126 138 156 161 183 189 180 171 204 213 241 204 246
68 118 137 141 160 173 150 196 192 189 185 173 175 179 175 165 166 178 179 167 161 157 153 141 144 145 150 142 138 140 159 156 153 161 184 178 170 215 218 220 284 280 142
60 62 71 88 120 158 163 198 193 177 181 170 165 168 159 160 173 148 133 148 156 160 166 158 150 143 142 151 147 144 144 155 161 153 184 179 120 248 233 244 245 245 256
51 57 56 60 75 119 157 170 176 152 158 158 162 161 161 168 168 154 155 158 154 144 149 151 138 143 143 151 145 144 160 146 134 127 169 166 194 225 204 217 244 268 263
35 48 69 85 90 113 130 137 132 133 161 152 145 160 163 159 151 146 149 143 142 139 134 130 131 128 122 120 132 131 129 119 116 116 154 191 210 229 172 198 216 237 242
30 30 30 47 72 86 92 110 125 143 147 139 142 139 138 126 130 137 136 135 142 140 135 128 122 126 132 145 144 135 130 133 131 124 133 93 44 37 8 325 257 241 247
8 16 22 28 39 62 71 89 115 112 128 128 123 119 118 122 131 133 137 135 134 133 128 129 134 133 138 130 126 132 127 119 142 150 145 136 141 162 134 61 358 346 302
358 6 14 21 27 32 22 41 73 108 132 139 135 144 143 143 141 138 140 135 140 142 145 143 147 143 133 147 140 122 125 130 125 133 171 172 156 182 163 140 117 79 56
17 15 8 6 7 4 14 20 38 87 123 156 156 163 167 157 154 154 150 149 151 151 145 145 139 135 142 153 139 107 104 124 162 181 190 191 178 157 183 225 139 226 152
13 11 13 358 343 350 347 339 325 270 226 214 190 174 176 165 162 166 159 155 135 130 141 138 141 146 147 153 147 162 163 170 165 179 146 195 178 161 170 177 228 220 184
3 3 357 341 351 1 335 322 312 300 279 254 217 187 184 180 171 165 150 135 128 118 122 135 159 168 152 167 175 199 180 181 132 142 116 231 215 183 193 199 234 233 198
341 342 355 348 356 346 327 294 281 278 295 303 285 215 196 180 152 135 140 139 150 156 152 154 166 165 168 175 186 195 179 127 160 118 206 206 222 224 211 214 233 245 103
336 338 334 338 343 349 339 324 311 322 297 268 251 234 205 167 148 154 150 164 160 160 159 163 169 183 184 172 192 196 205 175 142 205 235 186 205 220 213 209 216 182 216
331 327 328 327 351 355 351 332 334 318 297 261 238 215 196 175 166 161 162 162 169 174 174 187 183 181 186 185 188 201 209 213 227 224 226 179 200 212 216 224 191 198 203
344 336 326 343 357 353 347 345 332 323 294 248 212 202 195 174 169 155 164 179 179 186 191 194 184 175 171 174 158 195 211 223 208 205 208 203 205 203 213 184 203 204 217
327 330 331 346 352 348 359 360 348 337 326 233 157 177 186 177 167 169 183 199 194 206 198 189 178 160 176 195 192 187 194 194 195 181 186 203 203 200 198 197 218 201 183
313 297 312 335 350 357 6 2 357 356 344 56 136 140 145 151 144 145 143 74 159 158 79 107 130 135 137 173 185 191 191 194 174 172 184 205 203 213 211 196 201 200 209